THOR AGENA B DEB, 511

Orbit data source: Space-Track

THOR AGENA B DEB, 511 is space debris in LEO originally from a launch on Sat, 29 Sep 1962 UTC launched from the Air Force Western Test Range (AFWTR). Debris objects in space refer to the collection of defunct objects orbiting the Earth. Examples of debris include non-operational satellites, rocket bodies, and fragments generated from explosions, collisions, or faulty payload assembly.

Loading next visibility...
Identifier
511, 1962-049D
Orbit
LEO
Country
Flag of USUS
Related business
Manufacturer
Unknown
Mission
Spacecraft
Bus & Motor
Unknown
Mass
Unknown
Launch date (UTC)
1962-09-29 (63 years ago)
Launch vehicle
Unknown
Launch site
Air Force Western Test Range (AFWTR)
Object type
Payload
Rocket body
Debris
Shape & HBR
Unknown
Radar Cross Section
Small (<0.1 m²)

Expand to show TLE details & history
Last TLE update: 1 day ago

TLE from 1 day ago
0 THOR AGENA B DEB
1 00511U 62049D   25258.32807604  .00000074  00000-0  75721-4 0  9997
2 00511  80.4248 104.5107 0031298 325.0534 216.1555 13.68522004141987
Epoch: 2025-09-15T07:52Z
TLE epoch observation values (Epoch: 2025-09-15T07:52:25.769Z)
Latitude
-1.10334°
Longitude
172.05421°
Altitude
1,026.533 km
Speed
7.329 km/s
True Right ascension
18h 58m 47s
True Declination
-1° 05' 49"
Sunlit
Object was in daylight at epoch
Visualization orbit readout
Latitude
Unknown
Longitude
Unknown
Altitude
Unknown
Speed
Unknown
Apparent Right ascension
Unknown
Apparent Declination
Unknown
Sunlit
N/A
Visualization observer readout
Local Sidereal Time
05:13:49
Azimuth
Unknown
Elevation
Unknown
Doppler factor
Unknown
Orbital elements
Apogee altitude
1,025.251 km
Perigee altitude
979.053 km
Semi-major axis
7,380.289 km
Eccentricity
0.00313
Inclination
80.4248°
RAAN
104.5107°
Arg. of periapsis
325.0534°
True anomaly
215.94457°
Mean anomaly
216.1555°
Eccentric anomaly
216.04997°
Mean motion
3.42321 °/min
Orbital period
105.16 mins
BSTAR
0.000075721
Loading maneuver chart data...
Computing Atmospheric mass density...
Loading historical data...
Loading historical data...
Loading historical data...
Loading historical data...
Loading historical data...
Loading historical data...
Loading historical data...
Other satellites on launch #49 in the year 1962 (1962-09-29 UTC)

Documentation

Showing up to 5 results
|